Flag for Germany Weather past 2 weeks in Leutkirch im Allgäu, Baden-Württemberg, Germany

Now
29 °F

Light snow. Ice fog.


Feels Like: 29 °F
Forecast: 31 / 34 °F
Wind: 2 mph from Southwest

Location: Kempten

Current Time: Jan 26, 2015 at 9:53:27 PM

Latest Report: Jan 26, 2015 at 9:00 PM


Visibility: 1 mi

Pressure: 30.21 "Hg

Humidity: 95%

Dew point: 28 °F

Location of Leutkirch im AllgäuLocation

Historic Weather in Leutkirch im Allgäu — Graph

°F

Leutkirch im Allgäu temperature yesterday

Maximum temperature yesterday: 31 °F (at 3:00 PM)
Minimum temperature yesterday: 26 °F (at 11:00 PM)
Average temperature yesterday: 29 °F

Past Weeks' High & Low Weather Summary

 TemperatureHumidityPressure
High53 °F (Jan 13, 2:00 PM)99% (Jan 17, 6:00 AM)30.48 "Hg (Jan 17, 6:00 AM)
Low18 °F (Jan 19, 9:00 AM)25% (Jan 13, 1:00 PM)29.70 "Hg (Jan 16, 4:00 PM)
Average32 °F82%30.08 "Hg
* Reported Jan 11 9:00 PM — Jan 26 9:00 PM, Leutkirch im Allgäu, Weather by CustomWeather, © 2014

Note: Actual official high and low records may vary slightly from our data, if they occured in-between our weather recording intervals... More about our weather records

Advertising

Leutkirch im Allgäu weather history for previous 24 hours

 ConditionsComfort  
Time TempWeatherWind HumidityBarometerVisibility
9:00 PM
Jan 26
29 °FLight snow. Ice fog.2 mph95%30.21 "Hg1 mi
8:00 PM29 °FLight snow. Overcast.2 mph91%30.23 "Hg4 mi
7:00 PM29 °FLight snow. Ice fog.3 mph81%30.23 "Hg3 mi
6:00 PM30 °FOvercast.5 mph71%30.25 "Hg25 mi
5:00 PM31 °FOvercast.3 mph66%30.26 "Hg25 mi
3:00 PM33 °FOvercast.3 mph63%30.27 "Hg17 mi
2:00 PM33 °FOvercast.2 mph61%30.29 "Hg14 mi
1:00 PM33 °FSunny.3 mph61%30.31 "Hg7 mi
12:00 PM32 °FSunny.5 mph60%30.35 "Hg10 mi
11:00 AM30 °FSunny.2 mph64%30.38 "Hg13 mi
10:00 AM29 °FOvercast.3 mph69%30.39 "Hg19 mi
9:00 AM27 °FOvercast.1 mph76%30.40 "Hg28 mi
8:00 AM26 °FOvercast.3 mph78%30.42 "Hg28 mi
7:00 AM26 °FOvercast.3 mph77%30.42 "Hg37 mi
6:00 AM26 °FOvercast.3 mph80%30.42 "Hg31 mi
5:00 AM26 °FOvercast.3 mph82%30.44 "Hg25 mi
3:00 AM25 °FLight snow. Overcast.2 mph82%30.45 "Hg18 mi
2:00 AM25 °FSnow flurries. Overcast.2 mph82%30.45 "Hg17 mi
1:00 AM26 °FOvercast.3 mph80%30.45 "Hg22 mi
12:00 AM26 °FSnow flurries. Overcast.2 mph84%30.47 "Hg14 mi
11:00 PM
Jan 25
26 °FLight snow. Overcast.1 mph83%30.48 "Hg4 mi
9:00 PM27 °FOvercast.2 mph83%30.47 "Hg14 mi
Weather by CustomWeather, © 2014

See weather overviewHow to use our weather pages